Waycross, GA

11:00 AM EDT on May 29, 2017 (GMT -0400)
Waycross-Ware County

Weather History for KAYS - July, 2013

Change the Weather History Date:

Sunday, July 21, 2013

  Actual Average (KAMG) Record (KAMG)
Temperature  
Mean Temperature 80 °F -  
Max Temperature 87 °F 92 °F 100 °F (1952)
Min Temperature 73 °F 70 °F 63 °F (2004)
Cooling Degree Days 15    
Growing Degree Days 30 (Base 50)    
Moisture  
Dew Point 75 °F    
Average Humidity 93    
Maximum Humidity 100    
Minimum Humidity 70    
Precipitation  
Precipitation 0.00 in - - ()
Sea Level Pressure  
Sea Level Pressure 30.04 in    
Wind  
Wind Speed 5 mph (SW)    
Max Wind Speed 9 mph    
Max Gust Speed -    
Visibility 9 miles    
Events      
Averages and records for this station are not official NWS values.
T = Trace of Precipitation, MM = Missing Value Source: NWS Daily Summary

Daily Weather History Graph

Daily Weather History Graph

Search for Another Location

Airport or City:

Trip Planner

Search our weather history database for the weather conditions in past years. The results will help you decide how hot, cold, wet, or windy it might be!

Date:

Astronomy

Jul. 21, 2013 Rise Set
Actual Time 6:39 AM EDT 8:32 PM EDT
Civil Twilight 6:12 AM EDT 8:59 PM EDT
Nautical Twilight 5:39 AM EDT 9:31 PM EDT
Astronomical Twilight 5:05 AM EDT 10:06 PM EDT
Moon 7:32 PM EDT (7/21) 5:22 AM EDT (7/21)
Length of Visible Light 14h 46m
Length of Day
13h 52m
Waxing Gibbous, 98% of the Moon is Illuminated
Jul 21
Waxing Gibbous
Jul 22
Full
Jul 29
Last Quarter
Aug 6
New
Aug 14
First Quarter

Hourly Weather History & Observations

Time (EDT) Temp. Heat Index Dew Point Humidity Pressure Visibility Wind Dir Wind Speed Gust Speed Precip Events Conditions
12:15 AM 75.2 °F - 75.2 °F 100% 30.08 in 10.0 mi South 8.1 mph - N/A   Clear
12:35 AM 75.2 °F - 75.2 °F 100% 30.07 in 10.0 mi South 6.9 mph - N/A   Scattered Clouds
12:55 AM 75.2 °F - 75.2 °F 100% 30.07 in 10.0 mi SSW 6.9 mph - N/A   Scattered Clouds
1:15 AM 75.2 °F - 75.2 °F 100% 30.07 in 10.0 mi SSW 8.1 mph - N/A   Clear
1:35 AM 75.2 °F - 75.2 °F 100% 30.06 in 10.0 mi SW 5.8 mph - N/A   Clear
1:55 AM 75.2 °F - 75.2 °F 100% 30.06 in 10.0 mi SW 4.6 mph - N/A   Clear
2:15 AM 75.2 °F - 75.2 °F 100% 30.05 in 10.0 mi WSW 4.6 mph - N/A   Clear
3:15 AM 75.2 °F - 73.4 °F 94% 30.04 in 10.0 mi SW 4.6 mph - N/A   Mostly Cloudy
3:35 AM 75.2 °F - 73.4 °F 94% 30.03 in 10.0 mi SSW 3.5 mph - N/A   Scattered Clouds
3:55 AM 75.2 °F - 73.4 °F 94% 30.03 in 7.0 mi Calm Calm - N/A   Scattered Clouds
4:15 AM 75.2 °F - 73.4 °F 94% 30.02 in 7.0 mi Calm Calm - N/A   Scattered Clouds
4:35 AM 75.2 °F - 73.4 °F 94% 30.02 in 7.0 mi Calm Calm - N/A   Scattered Clouds
4:55 AM 73.4 °F - 73.4 °F 100% 30.02 in 7.0 mi Calm Calm - N/A   Clear
5:15 AM 73.4 °F - 73.4 °F 100% 30.02 in 7.0 mi Calm Calm - N/A   Clear
5:35 AM 73.4 °F - 73.4 °F 100% 30.02 in 7.0 mi Calm Calm - N/A   Clear
5:55 AM 73.4 °F - 73.4 °F 100% 30.02 in 7.0 mi Calm Calm - N/A   Clear
6:15 AM 73.4 °F - 73.4 °F 100% 30.03 in 7.0 mi SW 3.5 mph - N/A   Clear
6:35 AM 73.4 °F - 73.4 °F 100% 30.04 in 7.0 mi SSW 3.5 mph - N/A   Scattered Clouds
6:55 AM 73.4 °F - 73.4 °F 100% 30.04 in 10.0 mi Calm Calm - N/A   Clear
7:15 AM 73.4 °F - 73.4 °F 100% 30.05 in 10.0 mi Calm Calm - N/A   Clear
7:35 AM 75.2 °F - 73.4 °F 94% 30.06 in 10.0 mi SW 4.6 mph - N/A   Clear
7:55 AM 75.2 °F - 73.4 °F 94% 30.06 in 10.0 mi SW 5.8 mph - N/A   Clear
2:15 PM 82.4 °F 90.9 °F 77.0 °F 84% 30.05 in 7.0 mi West 9.2 mph - N/A   Scattered Clouds
2:35 PM 80.6 °F 87.1 °F 77.0 °F 89% 30.04 in 10.0 mi West 3.5 mph - N/A   Scattered Clouds
2:55 PM 82.4 °F 90.9 °F 77.0 °F 84% 30.03 in 10.0 mi SW 8.1 mph - N/A   Scattered Clouds
3:35 PM 86.0 °F 96.9 °F 77.0 °F 74% 30.02 in 10.0 mi WSW 6.9 mph - N/A   Clear
3:55 PM 87.8 °F 99.7 °F 77.0 °F 70% 30.01 in 10.0 mi SW 9.2 mph - N/A   Clear
8:55 PM 80.6 °F 86.2 °F 75.2 °F 84% 30.03 in 10.0 mi WSW 6.9 mph - N/A   Clear
9:15 PM 80.6 °F 86.2 °F 75.2 °F 84% 30.03 in 10.0 mi SW 5.8 mph - N/A   Clear
9:55 PM 78.8 °F - 75.2 °F 89% 30.04 in 10.0 mi SSW 5.8 mph - N/A   Clear
10:15 PM 78.8 °F - 75.2 °F 89% 30.05 in 10.0 mi SW 5.8 mph - N/A   Clear
10:35 PM 78.8 °F - 75.2 °F 89% 30.06 in 10.0 mi SW 4.6 mph - N/A   Clear
10:55 PM 78.8 °F - 75.2 °F 89% 30.06 in 10.0 mi SW 4.6 mph - N/A   Clear
11:35 PM 78.8 °F - 75.2 °F 89% 30.07 in 10.0 mi SSW 5.8 mph - N/A   Clear